TELSTAR 19V

Last updated on Sun Jun 21 2026 00:03:07 GMT+0000 (Coordinated Universal Time)

1 43562U 18059A 26171.37950375 -.00000284 00000+0 00000+0 0 9992 2 43562 0.0156 116.4746 0002641 358.4978 227.2262 1.00269913 29173
UTC large
Height (km)
Speed (km/s)
/
Latitude / Longitude
Inclination (degrees)
Orbital Period (minutes)
Azimuth
Elevation
Range (km)
Doppler Factor

Next 0 passes for location: London (51.5072 / 0.1276)

No passes found over London.
TELSTAR 19V